Regional Weather Roundup
Issued by NWS

Home | Current Version | Previous Version | Graphics & Text | Print | Product List | Glossary On
Versions: 1 2 3 4 5 6 7 8 9 10 11 12 13 14 15 16 17 18 19 20 21 22 23 24 25 26 27 28 29 30 31 32 33 34 35 36 37 38 39 40 41 42 43 44 45 46 47 48 49 50
000
ASUS45 KTFX 251610
RWRMT
MONTANA REGIONAL WEATHER ROUNDUP
NATIONAL WEATHER SERVICE GREAT FALLS MT
1000 AM MDT MON MAY 25 2015

NOTE: "FAIR" INDICATES FEW OR NO CLOUDS BELOW 12000 FEET WITH NO
SIGNIFICANT WEATHER AND/OR OBSTRUCTIONS TO VISIBILITY.

MTZ001>007-043-251700-
WEST OF THE DIVIDE

CITY           SKY/WX    TMP DP  RH WIND       PRES   REMARKS
KALISPELL      PTSUNNY   62  41  46 CALM      29.88S
MISSOULA       MOSUNNY   57  40  52 S6        29.92F
BUTTE          SUNNY     53  40  61 N3        29.97F
MULLAN PASS    CLOUDY    47  43  86 CALM      29.96R
DEER LODGE       N/A     55  45  67 CALM      29.98F
EUREKA           N/A     59  41  51 E6        29.91R
HAMILTON         N/A     57  41  54 S5        29.91F
LIBBY            N/A     52  48  87 CALM      29.95R
RONAN            N/A     64  44  48 NW3       29.93F
THOMPSON FALLS   N/A     57  49  75 W5        29.96S
$$

MTZ008-052>055-251700-
SOUTHWEST MONTANA

CITY           SKY/WX    TMP DP  RH WIND       PRES   REMARKS
BOZEMAN        SUNNY     55  46  71 N3        29.96F
DILLON         SUNNY     53  43  68 CALM      29.96F
W YELLOWSTONE  MOSUNNY   48  39  71 CALM      29.99F
THREE FORKS      N/A     57  34  42 CALM      29.95F
$$

MTZ009-010-012-014-046-048-049-054-251700-
EAST SLOPES AND CENTRAL MONTANA

CITY           SKY/WX    TMP DP  RH WIND       PRES   REMARKS
CUT BANK       SUNNY     60  42  51 S9        29.92S
GREAT FALLS    SUNNY     59  46  62 S3        29.91F
MALMSTROM AFB  SUNNY     58  46  64 N1        29.92F
HELENA         SUNNY     56  45  66 CALM      29.93F
CONRAD           N/A     61  48  62 E3        29.95S
$$

MTZ011-013-016-021-045-047-050-051-251700-
NORTH CENTRAL MONTANA

CITY           SKY/WX    TMP DP  RH WIND       PRES   REMARKS
HAVRE          SUNNY     66  46  48 W5        29.89F
LEWISTOWN      SUNNY     59  46  62 CALM      29.93F
N BAR RANCH    PTSUNNY   59  43  55 VRB3      29.96S
CHINOOK          N/A     64  45  48 W3        29.89F
FORT BENTON      N/A     63  46  55 SW3       29.92F
$$

MTZ017>020-022>027-061-062-251700-
NORTHEAST MONTANA

CITY           SKY/WX    TMP DP  RH WIND       PRES   REMARKS
GLASGOW        MOSUNNY   67  48  50 VRB3      29.87F
JORDAN           N/A     66  48  52 NE7       29.89S
SIDNEY         PTSUNNY   63  54  72 CALM      29.89F
WOLF POINT     MOSUNNY   68  47  46 E5        29.87F
MALTA            N/A     65  48  53 CALM      29.86F
POPLAR           N/A     70  46  43 E6        29.88F
SCOBEY           N/A     72  40  31 NE8       29.87F
$$

MTZ028>42-056>058-251700-
SOUTHCENTRAL AND SOUTHEAST MONTANA

CITY           SKY/WX    TMP DP  RH WIND       PRES   REMARKS
BAKER          CLOUDY    57  52  83 NE16      29.90S
BILLINGS       CLOUDY    56  47  71 CALM      29.93S
LIVINGSTON     SUNNY     57  44  62 CALM      29.95S
MILES CITY     PTSUNNY   62  50  64 E8        29.89F
BIG TIMBER       N/A     55  45  67 W6        29.96S
EKALAKA          N/A     54  51  89 N8        29.89S
FORSYTH          N/A     63  52  67 E5        29.90S
LAUREL           N/A     56  43  61 CALM      29.93S
ROUNDUP          N/A     59  45  59 CALM      29.85S
$$

REGIONAL REPORTS...DAKOTAS

CITY           SKY/WX    TMP DP  RH WIND       PRES   REMARKS
WILLISTON      CLOUDY    69  45  41 CALM      29.88S
MINOT          PTSUNNY   69  49  48 N6        29.85F
DICKINSON      CLOUDY    56  53  90 E8        29.88S
BEACH          FAIR      54  54 100 E6        29.92S
CROSBY         FAIR      70  45  40 E6        29.88S
WATFORD CITY   FAIR      63  48  59 W3        29.87F
BISMARCK       LGT RAIN  60  55  83 NE7       29.86F
GRAND FORKS    CLOUDY    64  50  60 NW8       29.76F
FARGO          LGT RAIN  61  57  87 N7        29.77S
BUFFALO SD       N/A     54  52  93 NE10      29.80S
RAPID CITY     CLOUDY    57  52  83 NW15      29.82F
$$

REGIONAL REPORTS...WYOMING/IDAHO/WASHINGTON

CITY           SKY/WX    TMP DP  RH WIND       PRES   REMARKS
GILLETTE       CLOUDY    52  49  89 N14       29.90S
SHERIDAN       CLOUDY    55  48  77 VRB3      29.93S
BUFFALO WY     CLOUDY    50  46  86 N12       29.95R
CODY           CLOUDY    54  45  71 NW6       29.96S
YELLOWSTONE LA   N/A     45  35  68 VRB3      30.04S
IDAHO FALLS    MOSUNNY   56  47  71 SW8       29.96S
SALMON         CLOUDY    52  41  66 CALM      29.95F
BOISE          SUNNY     65  46  50 CALM      29.90S
SPOKANE        PTSUNNY   56  48  74 S6        29.89S
$$

REGIONAL REPORTS...ALBERTA

CITY           SKY/WX    TMP DP  RH WIND       PRES   REMARKS
EDMONTON       MOSUNNY   72  41  33 W2        29.86S
CALGARY        CLOUDY    63  39  42 S14       29.90S
LETHBRIDGE     PTSUNNY   68  43  40 S17       29.88F
MEDICINE HAT   PTSUNNY   68  41  37 VRB2      29.88F
$$

REGIONAL REPORTS...SASKATCHEWAN

CITY           SKY/WX    TMP DP  RH WIND       PRES   REMARKS
SWIFT CURRENT  SUNNY     72  37  28 NW5       29.89F
REGINA         MOSUNNY   73  43  33 VRB2      29.86F
SASKATOON      PTSUNNY   75  41  29 NW5       29.86F
$$



USA.gov is the U.S. government's official web portal to all federal, state and local government web resources and services.